TimeCST,TemperatureF,Dew PointF,Humidity,Sea Level PressureIn,VisibilityMPH,Wind Direction,Wind SpeedMPH,Gust SpeedMPH,PrecipitationIn,Events,Conditions,WindDirDegrees,DateUTC
12:53 AM,44.1,39.0,82,30.29,10.0,NE,4.6,-,N/A,,Clear,40,2013-01-07 06:53:00
1:53 AM,42.1,37.9,85,30.28,10.0,NNE,4.6,-,N/A,,Clear,20,2013-01-07 07:53:00
2:53 AM,41.0,37.0,86,30.28,10.0,North,4.6,-,N/A,,Clear,10,2013-01-07 08:53:00
3:53 AM,41.0,37.9,89,30.28,10.0,North,5.8,-,N/A,,Clear,10,2013-01-07 09:53:00
4:53 AM,41.0,37.0,86,30.27,10.0,North,3.5,-,N/A,,Clear,10,2013-01-07 10:53:00
5:53 AM,39.9,36.0,86,30.29,10.0,NE,3.5,-,N/A,,Clear,40,2013-01-07 11:53:00
6:53 AM,37.9,35.1,89,30.30,9.0,NNE,3.5,-,N/A,,Clear,20,2013-01-07 12:53:00
7:53 AM,42.1,37.0,82,30.32,10.0,NNE,4.6,-,N/A,,Clear,30,2013-01-07 13:53:00
8:53 AM,46.9,37.9,71,30.34,10.0,Variable,5.8,-,N/A,,Clear,0,2013-01-07 14:53:00
9:53 AM,53.1,36.0,52,30.34,10.0,East,8.1,16.1,N/A,,Clear,80,2013-01-07 15:53:00
10:53 AM,55.9,35.1,45,30.31,10.0,ENE,8.1,-,N/A,,Clear,70,2013-01-07 16:53:00
11:53 AM,59.0,35.1,41,30.27,10.0,NE,9.2,-,N/A,,Clear,40,2013-01-07 17:53:00
1:53 PM,64.0,35.1,34,30.24,10.0,East,8.1,-,N/A,,Scattered Clouds,90,2013-01-07 19:53:00
2:53 PM,62.1,34.0,35,30.24,10.0,ENE,8.1,-,N/A,,Clear,60,2013-01-07 20:53:00
3:53 PM,60.1,35.1,39,30.25,10.0,ENE,4.6,-,N/A,,Clear,70,2013-01-07 21:53:00
5:53 PM,48.0,37.0,66,30.27,10.0,Calm,Calm,-,N/A,,Clear,0,2013-01-07 23:53:00
6:53 PM,46.0,37.9,73,30.27,10.0,Calm,Calm,-,N/A,,Clear,0,2013-01-08 00:53:00
7:53 PM,42.1,37.0,82,30.28,10.0,Calm,Calm,-,N/A,,Clear,0,2013-01-08 01:53:00
8:53 PM,45.0,39.9,82,30.28,10.0,Calm,Calm,-,N/A,,Overcast,0,2013-01-08 02:53:00
9:53 PM,42.1,37.0,82,30.27,10.0,Calm,Calm,-,N/A,,Clear,0,2013-01-08 03:53:00
10:53 PM,42.1,37.0,82,30.24,10.0,Calm,Calm,-,N/A,,Clear,0,2013-01-08 04:53:00
11:53 PM,45.0,37.9,76,30.24,10.0,Calm,Calm,-,N/A,,Clear,0,2013-01-08 05:53:00